This is the latest recevied weather packets stored in our database for station/object W0RMT-13. If no packets are shown the sender has not sent any weather packets the latest 10 day(s).
| Time | Temp. | Humidity | Pressure | Rain* | Wind** | Luminosity | Snow |
|---|---|---|---|---|---|---|---|
| 1777684806 | 14.44° C | 26% | 1018.7 hPa | 0 mm | - | 20 W/m² | - |
| 1777684514 | 14.44° C | 26% | 1018.7 hPa | 0 mm | - | 20 W/m² | - |
| 1777683827 | 15° C | 25% | 1018.2 hPa | 0 mm | - | 22 W/m² | - |
| 1777683136 | 15° C | 24% | 1018.2 hPa | 0 mm | - | 26 W/m² | - |
| 1777682454 | 15° C | 22% | 1018.2 hPa | 0 mm | - | 36 W/m² | - |
| 1777681751 | 15° C | 23% | 1018.2 hPa | 0 mm | - | 43 W/m² | - |
| 1777681076 | 15° C | 22% | 1018.2 hPa | 0 mm | - | 39 W/m² | - |
| 1777680370 | 15.56° C | 22% | 1017.8 hPa | 0 mm | - | 40 W/m² | - |
| 1777679749 | 15.56° C | 23% | 1018.2 hPa | 0 mm | - | 52 W/m² | - |
| 1777679128 | 15.56° C | 22% | 1018.2 hPa | 0 mm | - | 36 W/m² | - |
| 1777678529 | 16.11° C | 22% | 1018.2 hPa | 0 mm | - | 35 W/m² | - |
| 1777677914 | 16.67° C | 22% | 1018.2 hPa | 0 mm | - | 35 W/m² | - |
| 1777677266 | 16.67° C | 22% | 1017.8 hPa | 0 mm | - | 37 W/m² | - |
| 1777676645 | 17.22° C | 21% | 1017.8 hPa | 0 mm | - | 41 W/m² | - |
| 1777675959 | 17.78° C | 22% | 1018.2 hPa | 0 mm | - | 531 W/m² | - |
| 1777675289 | 17.78° C | 20% | 1017.8 hPa | 0 mm | - | 552 W/m² | - |
| 1777674674 | 17.78° C | 20% | 1017.8 hPa | 0 mm | - | 562 W/m² | - |
| 1777673986 | 17.78° C | 21% | 1017.8 hPa | 0 mm | - | 573 W/m² | - |
| 1777673351 | 18.33° C | 22% | 1017.8 hPa | 0 mm | - | 587 W/m² | - |
| 1777672719 | 18.33° C | 21% | 1017.8 hPa | 0 mm | - | 596 W/m² | - |
| 1777672113 | 18.33° C | 21% | 1018.2 hPa | 0 mm | - | 608 W/m² | - |
| 1777671501 | 17.78° C | 22% | 1018.7 hPa | 0 mm | - | 606 W/m² | - |
| 1777670875 | 17.22° C | 23% | 1018.7 hPa | 0 mm | - | 605 W/m² | - |
| 1777670277 | 17.22° C | 22% | 1018.7 hPa | 0 mm | - | 632 W/m² | - |
| 1777669571 | 17.22° C | 24% | 1018.7 hPa | 0 mm | - | 629 W/m² | - |
* Rain latest hour (hover to see other rain measurements)
** Current wind speed in m/s (hover to see current wind gust speed)